Goteborg, Sweden

9:50 AM CEST on March 28, 2017 (GMT +0200)
Goteborg

Weather History for ESGG - April, 2013

Change the Weather History Date:

Wednesday, April 10, 2013

  Actual Average Record
Temperature  
Mean Temperature 34 °F -  
Max Temperature 44 °F - - ()
Min Temperature 23 °F - - ()
Degree Days  
Heating Degree Days 32    
Moisture  
Dew Point 16 °F    
Average Humidity 51    
Maximum Humidity 74    
Minimum Humidity 29    
Precipitation  
Precipitation 0.00 in - - ()
Sea Level Pressure  
Sea Level Pressure 29.89 in    
Wind  
Wind Speed 7 mph ()    
Max Wind Speed 15 mph    
Max Gust Speed -    
Visibility 6.2 miles    
Events      
T = Trace of Precipitation, MM = Missing Value Source: Averaged Metar Reports

Daily Weather History Graph

Daily Weather History Graph

Search for Another Location

Airport or City:

Trip Planner

Search our weather history database for the weather conditions in past years. The results will help you decide how hot, cold, wet, or windy it might be!

Date:

Astronomy

Apr. 10, 2013 Rise Set
Actual Time 6:14 AM CEST 8:11 PM CEST
Civil Twilight 5:33 AM CEST 8:52 PM CEST
Nautical Twilight 4:40 AM CEST 9:45 PM CEST
Astronomical Twilight 3:38 AM CEST 10:49 PM CEST
Moon 5:58 AM CEST (4/10) 8:40 PM CEST (4/10)
Length of Visible Light 15h 19m
Length of Day
13h 56m
New Moon, 0% of the Moon is Illuminated
Apr 10
New Moon
Apr 18
First Quarter
Apr 25
Full
May 2
Last Quarter
May 10
New

Hourly Weather History & Observations

Time (CEST) Temp. Windchill Dew Point Humidity Pressure Visibility Wind Dir Wind Speed Gust Speed Precip Events Conditions
12:20 AM 28.4 °F 21.2 °F 17.6 °F 64% 29.92 in - SE 6.9 mph - N/A   Clear
12:50 AM 28.4 °F 23.3 °F 17.6 °F 64% 29.92 in - SE 4.6 mph - N/A   Clear
1:20 AM 26.6 °F 20.0 °F 17.6 °F 69% 29.92 in - SE 5.8 mph - N/A   Clear
1:50 AM 26.6 °F 22.6 °F 17.6 °F 69% 29.92 in - ESE 3.5 mph - N/A   Clear
2:20 AM 26.6 °F 22.6 °F 17.6 °F 69% 29.92 in - ESE 3.5 mph - N/A   Clear
2:50 AM 26.6 °F 21.2 °F 15.8 °F 64% 29.92 in - East 4.6 mph - N/A   Clear
3:20 AM 24.8 °F 16.9 °F 15.8 °F 69% 29.92 in - ESE 6.9 mph - N/A   Clear
3:50 AM 24.8 °F 17.9 °F 15.8 °F 69% 29.92 in - ESE 5.8 mph - N/A   Clear
4:20 AM 24.8 °F 19.1 °F 15.8 °F 69% 29.92 in - East 4.6 mph - N/A   Clear
4:50 AM 24.8 °F 19.1 °F 15.8 °F 69% 29.92 in - East 4.6 mph - N/A   Clear
5:20 AM 23.0 °F 13.9 °F 15.8 °F 74% 29.92 in - ENE 8.1 mph - N/A   Clear
5:50 AM 24.8 °F 17.9 °F 15.8 °F 69% 29.92 in - East 5.8 mph - N/A   Clear
6:20 AM 24.8 °F 17.9 °F 15.8 °F 69% 29.92 in - East 5.8 mph - N/A   Clear
6:50 AM 24.8 °F 16.1 °F 17.6 °F 74% 29.92 in - East 8.1 mph - N/A   Clear
7:20 AM 24.8 °F 15.3 °F 17.6 °F 74% 29.92 in - East 9.2 mph - N/A   Clear
7:50 AM 26.6 °F 19.1 °F 17.6 °F 69% 29.92 in - NE 6.9 mph - N/A   Clear
8:20 AM 28.4 °F 20.4 °F 17.6 °F 64% 29.92 in - ENE 8.1 mph - N/A   Clear
8:50 AM 30.2 °F 20.8 °F 19.4 °F 64% 29.92 in - East 11.5 mph - N/A   Clear
9:20 AM 30.2 °F 19.3 °F 19.4 °F 64% 29.92 in - East 15.0 mph - N/A   Clear
9:50 AM 32.0 °F 23.0 °F 19.4 °F 60% 29.92 in - East 11.5 mph - N/A   Clear
10:20 AM 33.8 °F 24.3 °F 19.4 °F 56% 29.89 in - East 13.8 mph - N/A   Clear
10:50 AM 35.6 °F 27.1 °F 19.4 °F 52% 29.89 in - East 12.7 mph - N/A   Clear
11:20 AM 35.6 °F 26.6 °F 19.4 °F 52% 29.89 in 6.2 mi East 13.8 mph - N/A   Partly Cloudy
11:50 AM 37.4 °F 30.8 °F 17.6 °F 45% 29.89 in 6.2 mi ESE 9.2 mph - N/A   Partly Cloudy
12:20 PM 37.4 °F 29.8 °F 17.6 °F 45% 29.89 in 6.2 mi East 11.5 mph - N/A   Partly Cloudy
12:50 PM 41.0 °F 35.2 °F 15.8 °F 36% 29.89 in - East 9.2 mph - N/A   Clear
1:20 PM 41.0 °F 35.2 °F 15.8 °F 36% 29.89 in - SE 9.2 mph - N/A   Clear
1:50 PM 41.0 °F 35.2 °F 15.8 °F 36% 29.86 in - ENE 9.2 mph - N/A   Clear
2:20 PM 42.8 °F 38.0 °F 14.0 °F 31% 29.86 in - ESE 8.1 mph - N/A   Clear
2:50 PM 42.8 °F 37.0 °F 12.2 °F 29% 29.86 in - East 10.4 mph - N/A   Clear
3:20 PM 42.8 °F 38.6 °F 14.0 °F 31% 29.86 in - ENE 6.9 mph - N/A   Clear
3:50 PM 44.6 °F 39.7 °F 14.0 °F 29% 29.86 in - ESE 9.2 mph - N/A   Clear
4:20 PM 44.6 °F 40.2 °F 14.0 °F 29% 29.86 in - SSE 8.1 mph - N/A   Clear
4:50 PM 44.6 °F 40.2 °F 14.0 °F 29% 29.86 in - ESE 8.1 mph - N/A   Clear
5:20 PM 44.6 °F 40.7 °F 14.0 °F 29% 29.83 in - East 6.9 mph - N/A   Clear
5:50 PM 44.6 °F 40.7 °F 14.0 °F 29% 29.83 in - ESE 6.9 mph - N/A   Clear
6:20 PM 42.8 °F 37.0 °F 14.0 °F 31% 29.83 in - East 10.4 mph - N/A   Clear
6:50 PM 42.8 °F 38.0 °F 12.2 °F 29% 29.83 in - East 8.1 mph - N/A   Clear
7:20 PM 41.0 °F 35.8 °F 14.0 °F 33% 29.83 in - East 8.1 mph - N/A   Clear
7:50 PM 39.2 °F 33.6 °F 15.8 °F 39% 29.83 in - East 8.1 mph - N/A   Clear
8:20 PM 39.2 °F 33.6 °F 15.8 °F 39% 29.86 in - East 8.1 mph - N/A   Clear
8:50 PM 37.4 °F 31.4 °F 15.8 °F 41% 29.86 in - East 8.1 mph - N/A   Clear
9:20 PM 35.6 °F 28.6 °F 15.8 °F 44% 29.86 in - ENE 9.2 mph - N/A   Clear
9:50 PM 35.6 °F 27.5 °F 15.8 °F 44% 29.86 in - East 11.5 mph - N/A   Clear
10:20 PM 35.6 °F 27.5 °F 17.6 °F 48% 29.86 in - East 11.5 mph - N/A   Clear
10:50 PM 33.8 °F 25.8 °F 17.6 °F 52% 29.86 in - East 10.4 mph - N/A   Clear
11:20 PM 33.8 °F 25.8 °F 17.6 °F 52% 29.86 in - East 10.4 mph - N/A   Clear
11:50 PM 33.8 °F 25.8 °F 17.6 °F 52% 29.86 in - East 10.4 mph - N/A   Clear